Showing default

APSTAR 6C, 43450

Orbit data source: Space-Track

APSTAR 6C, 43450 is a payload satellite owned by APT (CN) in GEO that was launched on Thu, 03 May 2018 UTC via a CHANG ZHENG 3B launch vehicle from the Xichang Space Center, China (XSC). Payload-class satellites include a variety of spacecraft equipped with specific instruments for various scientific and technological missions. These include communications satellites like Starlink; space stations such as the ISS; scientific satellites like the Hubble; Earth observation satellites from companies like Planet Labs, Umbra, and HawkEye 360; GPS; miniature CubeSats for education and research; and military/defense satellites.

Not visible in the next 10 days
Identifier
43450, 2018-041A
Orbit
GEO
Country
Flag of CNCN / PRC
Related business
Manufacturer
CAST
Mission
Operational Commercial Communications
Bus & Motor
DFH-4, DFH-4 LAE
Mass
~5,000 kg wet, ~2,500 kg dry
Launch date (UTC)
2018-05-03 (8 years ago)
Launch vehicle
CHANG ZHENG 3B
Launch site
Xichang Space Center, China (XSC)
Object type
Payload
Rocket body
Debris
Shape & HBR
Box + 2 Pan, 15.0 m
Radar Cross Section
34.063 m², Large (>1 m²)

Expand to show TLE details & history
Last TLE update: 14 hours ago

TLE from 14 hours ago
0 APSTAR 6C
1 43450U 18041A   26172.91570435 -.00000317  00000-0  00000+0 0  9993
2 43450   0.0262 331.1015 0000882  26.8735  15.7910  1.00273592 29857
Epoch: 2026-06-21T21:58Z
TLE epoch observation values (Epoch: 2026-06-21T21:58:36.855Z)
Latitude
0.02503°
Longitude
134.016°
Altitude
35,782.012 km
Speed
3.075 km/s
True Right ascension
00h 55m 06s
True Declination
0° 01' 30"
Sunlit
Object was in daylight at epoch
Visualization orbit readout
Latitude
Unknown
Longitude
Unknown
Altitude
Unknown
Speed
Unknown
Apparent Right ascension
Unknown
Apparent Declination
Unknown
Sunlit
N/A
Visualization observer readout
Local Sidereal Time
23:20:42
Azimuth
Unknown
Elevation
Unknown
Doppler factor
Unknown
Orbital elements
Apogee altitude
35,790.878 km
Perigee altitude
35,783.44 km
Semi-major axis
42,165.296 km
Eccentricity
0.00009
Inclination
0.0262°
RAAN
331.1015°
Arg. of periapsis
26.8735°
True anomaly
15.79375°
Mean anomaly
15.791°
Eccentric anomaly
15.79238°
Mean motion
0.25067 °/min
Orbital period
1,436.12 mins
BSTAR
0
Loading maneuver chart data...
Computing Atmospheric mass density...
Loading historical data...
Loading historical data...
Loading historical data...
Loading historical data...
Loading historical data...
Loading historical data...
Loading historical data...
Other satellites on launch #41 in the year 2018 (2018-05-03 UTC)

Documentation

Showing up to 5 results
|